This demonstration page uses our WeatherBlox Daily Observations layout. Learn more.

Left ArrowRight Arrow

41.86663, -103.66717

Hourly Observations for April 13, 2017

Temp ( °F °C ) Dew Point ( °F °C ) Humidity (%) Winds ( mph kmh ) Pressure ( in mb ) Visibility ( mi km ) Precip ( " mm )
12:53 am 00:53 Clear 43 6.1 36 2.2 76 76 ESE 7 11 30.12 1020 10 16.0934 N/A
1:53 am 01:53 Clear 41 5 37 2.8 86 86 ENE 7 11 30.12 1020 10 16.0934 N/A
2:53 am 02:53 Clear 41 5 37 2.8 86 86 ENE 3 6 30.09 1019 10 16.0934 N/A
3:53 am 03:53 Clear 38 3.3 34 1.1 86 86 ENE 5 7 30.1 1019 9 14.48406 N/A
4:53 am 04:53 Clear 38 3.3 34 1.1 86 86 N N/A 30.09 1019 7 11.26538 N/A
5:53 am 05:53 Clear with Mist and Fog 37 2.8 34 1.1 89 89 N N/A 30.11 1020 6 9.65604 N/A
6:46 am 06:46 Mostly Cloudy with Mist and Fog 36 2 34 1 93 93 E 5 7 30.21 1023 2.5 4.02335 N/A
6:53 am 06:53 Mostly Cloudy with Mist and Fog 36 2.2 34 1.1 93 93 E 3 6 30.12 1020 2.5 4.02335 N/A
7:03 am 07:03 Partly Cloudy with Mist and Fog 37 3 36 2 93 93 E 7 11 30.21 1023 2.5 4.02335 N/A
7:17 am 07:17 Mostly Cloudy with Mist and Fog 39 3.9 37 2.8 93 93 E 7 11 30.18 1022 2.5 4.02335 N/A
7:24 am 07:24 Partly Cloudy with Mist and Fog 39 4 37 3 93 93 E 8 13 30.18 1022 3 4.82802 N/A
7:53 am 07:53 Sunny with Mist and Fog 44 6.7 41 5 89 89 ESE 9 15 30.1 1019 4 6.43736 N/A
8:53 am 08:53 Hazy 49 9.4 42 5.6 77 77 SE 14 22 30.08 1019 4 6.43736 N/A
9:53 am 09:53 Hazy 54 12.2 43 6.1 67 67 SE 22 35 30.06 1018 5 8.0467 N/A
10:53 am 10:53 Sunny 60 15.6 45 7.2 58 58 SE 21 33 30.02 1017 7 11.26538 N/A
11:53 am 11:53 Sunny 63 17.2 46 7.8 54 54 SE 17 28 29.98 1015 9 14.48406 N/A
12:53 pm 12:53 Sunny 67 19.4 47 8.3 49 49 SE 22 35 29.93 1013 10 16.0934 N/A
1:53 pm 13:53 Sunny 71 21.7 47 8.3 42 42 SE 21 33 29.89 1012 10 16.0934 N/A
2:53 pm 14:53 Sunny 76 24.4 42 5.6 30 30 SSE 24 39 29.83 1010 10 16.0934 N/A
3:53 pm 15:53 Sunny 75 23.9 45 7.2 34 34 SE 20 31 29.8 1009 10 16.0934 N/A
4:53 pm 16:53 Sunny 78 25.6 42 5.6 28 28 SE 24 39 29.76 1008 10 16.0934 N/A
5:53 pm 17:53 Sunny 76 24.4 39 3.9 26 26 SE 26 43 29.75 1007 10 16.0934 N/A
6:53 pm 18:53 Sunny 70 21.1 41 5 35 35 SE 22 35 29.77 1008 10 16.0934 N/A
7:53 pm 19:53 Clear 66 18.9 41 5 40 40 SE 24 39 29.78 1008 10 16.0934 N/A
8:53 pm 20:53 Clear 63 17.2 41 5 45 45 SE 25 41 29.8 1009 10 16.0934 N/A
9:53 pm 21:53 Clear 60 15.6 43 6.1 53 53 SSE 25 41 29.79 1009 10 16.0934 N/A
10:53 pm 22:53 Clear 58 14.4 45 7.2 62 62 SSE 24 39 29.76 1008 10 16.0934 N/A
11:53 pm 23:53 Partly Cloudy 57 13.9 47 8.3 69 69 SE 17 28 29.75 1008 10 16.0934 N/A

Powered by AerisWeather